Date,TemperatureHighF,TemperatureAvgF,TemperatureLowF,DewpointHighF,DewpointAvgF,DewpointLowF,HumidityHigh,HumidityAvg,HumidityLow,PressureMaxIn,PressureMinIn,WindSpeedMaxMPH,WindSpeedAvgMPH,GustSpeedMaxMPH,PrecipitationSumIn
2013-1-1,23,19,14,20,13,10,92,78,63,30.39,30.24,8,2,14,0.00
2013-1-2,35,25,14,26,18,9,83,76,68,30.35,30.20,11,2,20,0.00
2013-1-3,37,30,24,30,24,20,89,80,66,30.48,30.32,8,2,17,0.01
2013-1-4,42,31,22,29,24,19,92,77,59,30.48,30.32,14,3,26,0.00
2013-1-5,42,36,32,35,30,26,88,80,76,30.32,30.12,10,4,23,0.00
2013-1-6,38,30,23,26,22,19,83,73,53,30.44,30.20,12,4,26,0.00
2013-1-7,48,36,26,30,26,21,82,68,48,30.38,30.13,11,3,23,0.00
2013-1-8,53,42,33,39,32,26,78,67,48,30.22,30.03,11,3,23,0.00
2013-1-9,54,42,34,39,33,29,85,71,49,30.47,30.22,5,1,14,0.00
2013-1-10,50,43,38,50,39,29,98,87,60,30.42,29.78,9,4,20,0.22
2013-1-11,61,55,49,50,48,47,98,80,61,29.81,29.63,12,6,23,0.00
2013-1-12,57,33,24,47,25,17,92,73,40,30.12,29.73,13,7,26,0.00
2013-1-13,25,20,14,17,12,8,79,73,65,30.45,30.09,11,4,20,0.00
2013-1-14,28,19,11,15,11,7,85,71,52,30.60,30.45,5,0,11,0.00
2013-1-15,30,22,13,18,14,8,83,71,56,30.50,30.26,5,0,10,0.00
2013-1-16,42,30,19,28,21,12,76,67,54,30.27,30.09,14,4,25,0.00
2013-1-17,44,35,29,32,28,26,92,76,54,30.54,30.23,9,3,17,0.00
2013-1-18,55,42,32,36,31,26,82,66,46,30.49,30.08,18,8,31,0.00
2013-1-19,60,48,41,37,34,31,75,59,37,30.27,30.01,14,7,27,0.00
2013-1-20,41,28,21,31,15,10,72,57,43,30.46,30.27,9,4,17,0.00
2013-1-21,21,18,16,12,5,-2,78,58,37,30.52,30.46,11,4,22,0.00
2013-1-22,28,19,14,10,6,1,66,56,44,30.54,30.39,3,1,11,0.00
2013-1-23,46,28,15,25,17,9,79,63,43,30.50,30.26,9,2,18,0.00
2013-1-24,26,20,10,16,8,3,74,60,52,30.62,30.26,11,5,19,0.00
2013-1-25,45,33,23,23,18,11,63,53,42,30.31,30.22,7,1,18,0.00
2013-1-26,48,36,27,30,25,22,83,65,48,30.39,30.18,7,3,14,0.00
2013-1-27,60,48,35,56,44,26,94,84,64,30.19,29.81,11,6,25,0.10
2013-1-28,74,65,56,62,58,54,92,80,62,29.90,29.70,13,5,30,0.00
2013-1-29,68,53,36,62,50,36,97,91,79,29.70,29.47,11,4,22,1.41
2013-1-30,37,29,24,36,24,17,96,83,69,30.04,29.46,17,10,32,0.01
2013-1-31,25,19,10,20,11,2,82,70,52,30.57,30.02,18,7,32,0.00
2013-2-1,28,18,8,18,8,0,74,65,54,30.59,30.25,7,2,14,0.00
2013-2-2,44,34,26,36,26,17,82,72,63,30.28,30.11,15,4,18,0.00
2013-2-3,44,38,32,34,24,15,80,59,39,30.33,29.93,14,4,22,0.00
2013-2-4,44,36,27,33,28,23,87,73,64,30.05,29.85,12,4,22,0.00
2013-2-5,56,39,24,37,29,21,91,70,41,30.17,29.95,11,3,21,0.00
2013-2-6,61,46,30,40,34,27,95,66,44,30.18,29.96,10,4,18,0.00
2013-2-7,50,44,34,46,40,30,95,87,65,30.23,29.91,13,5,26,0.56
2013-2-8,35,32,31,30,28,27,87,84,78,30.42,30.23,10,4,19,0.00
2013-2-9,48,37,30,37,31,27,92,81,56,30.34,29.87,10,6,17,0.03
2013-2-10,57,47,38,49,37,25,95,71,47,29.92,29.49,26,13,43,0.04
2013-2-11,48,40,34,30,27,25,74,61,43,30.21,29.93,14,6,29,0.00
2013-2-12,40,34,27,30,27,23,86,74,58,30.23,30.01,2,0,9,0.00
2013-2-13,54,42,30,36,29,25,80,63,37,30.01,29.85,10,3,21,0.00
2013-2-14,50,43,37,34,31,26,76,63,49,30.18,29.86,12,4,19,0.01
2013-2-15,37,31,25,29,17,11,76,57,35,30.42,30.19,13,6,23,0.00
2013-2-16,36,29,19,24,19,14,82,67,49,30.39,30.17,7,2,20,0.00
2013-2-17,54,36,28,34,25,22,78,66,46,30.17,29.94,8,3,15,0.00
2013-2-19,33,27,21,15,11,8,71,51,36,30.43,30.26,18,7,28,0.00
2013-2-20,26,21,15,17,12,6,74,67,57,30.49,30.31,6,2,15,0.00
2013-2-21,26,24,21,25,19,-100,94,86,71,30.33,29.85,13,5,28,0.00
2013-2-22,30,26,19,27,22,15,95,87,77,30.15,29.85,11,2,20,0.01
2013-2-23,33,24,14,25,18,11,90,79,63,30.15,30.05,3,0,13,0.00
2013-2-24,41,30,16,29,23,13,90,75,59,30.15,30.02,6,2,12,0.00
2013-2-25,39,32,28,32,21,-100,94,74,69,30.07,29.72,16,-49,27,0.00
2013-2-26,34,33,32,32,31,30,100,93,88,29.87,29.55,12,4,25,0.00
2013-2-27,32,31,30,30,28,26,95,89,81,30.07,29.86,13,7,24,0.00
2013-2-28,34,31,27,28,26,23,87,82,73,30.25,30.06,13,7,22,0.00
2013-3-1,30,30,30,26,26,26,86,86,85,30.24,30.22,5,2,14,0.00
2013-3-4,44,41,37,34,32,31,79,72,66,29.98,29.74,7,3,16,0.00
2013-3-5,37,33,29,33,25,20,94,74,64,30.38,29.98,20,12,33,0.00
2013-3-6,34,28,24,24,21,18,84,73,64,30.50,30.38,11,2,23,0.00
2013-3-7,43,33,21,32,26,18,87,75,61,30.41,30.25,9,4,16,0.00
2013-3-8,48,40,33,37,33,28,86,76,64,30.32,30.08,10,6,17,0.01
2013-3-9,56,46,40,49,42,36,96,86,68,30.08,29.69,10,4,17,0.00
2013-3-10,55,45,32,52,42,28,97,92,72,29.89,29.61,14,6,25,0.00
2013-3-11,35,31,28,28,26,24,89,80,67,30.07,29.85,14,8,28,0.00
2013-3-12,46,36,30,32,26,23,82,68,48,30.37,30.07,20,6,37,0.00
2013-3-13,43,34,25,26,23,20,81,65,48,30.55,30.37,11,3,18,0.00
2013-3-14,69,50,33,45,35,25,75,57,40,30.41,30.09,14,4,25,0.00
2013-3-15,79,60,39,54,46,36,89,62,37,30.12,29.67,14,4,25,0.00
2013-3-16,63,44,37,49,37,30,88,76,60,30.12,29.69,15,7,27,0.00
2013-3-17,37,34,31,33,30,28,94,87,76,30.14,29.83,11,6,21,0.01
2013-3-18,52,41,34,39,31,22,96,71,38,30.12,29.80,15,6,30,0.00
2013-3-19,44,37,33,34,24,14,92,61,36,30.30,30.10,10,1,18,0.00
2013-3-20,37,32,24,33,17,8,92,57,31,30.44,30.21,14,7,28,0.00
2013-3-21,31,28,24,27,18,11,85,66,48,30.22,30.01,7,3,14,0.00
2013-3-22,37,33,30,30,28,25,85,80,75,30.08,30.02,7,2,13,0.00
2013-3-23,43,36,33,35,30,28,94,79,60,30.10,29.94,12,5,21,0.01
2013-3-24,34,31,27,32,28,22,95,90,80,30.09,29.82,10,2,20,0.00
2013-3-25,34,30,24,27,24,20,91,81,72,30.38,30.07,14,5,26,0.00
2013-3-26,39,32,25,27,24,22,87,73,56,30.48,30.38,6,2,14,0.00
2013-3-27,46,37,27,35,29,22,87,75,59,30.41,30.28,11,3,17,0.00
2013-3-28,62,49,37,44,38,32,81,67,46,30.32,30.19,8,3,15,0.00
2013-3-29,67,52,38,46,40,35,88,65,33,30.26,30.16,7,3,15,0.00
2013-3-30,58,51,46,54,47,38,94,86,67,30.17,29.90,9,3,18,0.01
2013-3-31,66,54,45,50,43,32,97,70,39,30.01,29.94,13,3,24,0.00
2013-4-1,48,40,34,35,26,17,84,57,34,30.34,30.02,10,5,23,0.00
2013-4-2,35,32,29,24,22,21,73,67,58,30.41,30.34,3,0,7,0.00
2013-4-3,50,47,43,28,24,19,54,42,30,30.42,30.29,8,3,18,0.00
2013-4-4,62,50,38,32,29,26,74,46,27,30.30,30.10,5,1,12,0.00
2013-4-5,69,56,42,45,39,28,75,54,39,30.21,29.92,8,3,18,0.00
2013-4-6,74,64,56,53,45,38,60,52,39,29.92,29.67,21,8,34,0.00
2013-4-7,76,62,49,56,48,42,91,61,36,29.90,29.68,9,2,18,0.01
2013-4-8,75,65,56,64,59,53,93,81,67,29.77,29.69,13,2,28,0.00
2013-4-9,74,69,64,64,61,59,85,77,69,29.81,29.68,11,4,19,0.00
2013-4-10,70,49,43,63,47,42,96,93,78,29.93,29.69,22,6,33,0.00
2013-4-11,43,39,36,42,33,29,95,80,64,29.83,29.76,13,7,25,0.00
2013-4-12,49,41,35,36,32,28,79,71,57,30.07,29.80,14,6,24,0.32
2013-4-13,61,48,36,44,37,31,85,67,51,30.13,29.80,10,2,17,0.00
2013-4-14,79,64,51,57,50,42,90,63,37,29.80,29.50,17,8,33,0.10
2013-4-15,58,51,46,54,42,35,89,73,61,30.03,29.72,11,4,19,0.17
2013-4-16,47,44,42,40,37,35,85,75,65,30.21,30.03,10,6,19,0.01
2013-4-17,57,50,46,56,48,40,98,93,79,30.14,29.66,11,4,20,1.15
2013-4-18,54,43,38,53,40,31,98,89,73,29.94,29.53,17,9,29,0.40
2013-4-19,51,42,34,31,28,24,77,60,37,30.15,29.92,16,10,31,0.00
2013-4-20,56,45,34,36,30,26,76,56,36,30.33,30.15,9,2,15,0.00
2013-4-21,69,58,46,45,41,34,75,54,35,30.30,30.15,12,6,24,0.00
2013-4-22,69,59,49,47,43,36,73,56,33,30.20,29.94,10,4,18,0.00
2013-4-23,56,40,36,49,37,34,94,90,75,30.19,29.99,15,8,28,0.56
2013-4-24,53,42,33,35,31,26,94,67,38,30.32,30.19,11,4,21,0.00
2013-4-25,66,54,40,46,39,34,77,59,40,30.37,30.21,10,2,20,0.00
2013-4-26,58,53,48,49,46,43,94,80,62,30.29,30.20,12,4,22,0.43
2013-4-27,53,50,48,50,48,46,96,94,90,30.26,30.03,8,2,16,0.33
2013-4-28,72,58,45,57,51,44,97,78,53,30.04,29.84,7,2,15,0.00
2013-4-29,84,70,56,66,58,50,81,68,51,29.86,29.66,10,5,23,0.00
2013-4-30,84,74,64,60,56,51,78,55,33,29.85,29.68,12,5,26,0.00
2013-5-1,84,69,49,62,52,-100,76,59,42,30.15,29.85,15,5,27,0.00
2013-5-2,49,41,33,42,36,32,95,85,76,30.39,30.14,16,11,27,0.32
2013-5-3,36,34,33,34,33,32,96,95,94,30.32,29.93,11,6,21,0.89
2013-5-4,47,41,34,42,38,33,96,89,77,30.08,29.88,6,1,13,0.02
2013-5-5,64,52,46,55,48,42,96,86,69,30.14,30.04,14,5,23,0.00
2013-5-6,74,60,51,59,53,50,96,79,48,30.13,30.03,11,4,18,0.00
2013-5-7,80,66,52,58,53,50,95,67,39,30.10,29.99,4,1,12,0.00
2013-5-8,75,66,56,60,56,52,88,71,52,30.04,29.90,9,2,18,0.00
2013-5-9,78,66,60,64,60,58,95,82,51,29.94,29.85,12,2,21,0.10
2013-5-10,66,59,54,59,54,50,94,83,64,30.06,29.89,10,3,18,0.00
2013-5-11,67,58,49,51,40,30,92,57,28,30.26,30.05,16,6,30,0.01
2013-5-12,65,54,40,43,33,26,78,49,26,30.32,30.17,7,1,16,0.00
2013-5-13,78,63,46,57,48,39,83,59,37,30.20,29.96,8,3,19,0.00
2013-5-14,92,77,63,62,57,53,79,53,28,29.96,29.79,18,8,36,0.00
2013-5-15,87,76,66,68,62,56,81,63,50,29.90,29.80,12,5,24,0.00
2013-5-16,82,71,62,65,62,58,91,74,52,29.91,29.81,8,2,17,0.00
2013-5-17,79,69,59,64,60,57,93,76,56,29.96,29.87,2,0,9,0.00
2013-5-18,88,75,62,71,66,60,94,74,52,29.94,29.76,10,3,18,0.00
2013-5-19,86,74,62,71,66,60,93,76,56,29.85,29.54,19,5,28,1.21
2013-5-20,78,66,61,69,61,-100,94,87,70,29.79,29.63,13,5,27,0.35
2013-5-21,73,66,60,63,59,54,92,78,65,29.79,29.67,8,2,18,0.00
2013-5-22,67,62,56,56,53,51,84,73,63,29.94,29.73,9,3,21,0.00
2013-5-23,67,62,55,56,53,50,84,75,66,30.25,29.94,9,3,21,0.00
2013-5-24,72,61,51,54,50,46,94,68,41,30.38,30.19,13,5,25,0.00
2013-5-25,83,70,58,68,59,47,83,68,60,30.22,30.03,10,4,19,0.00
2013-5-26,86,75,65,71,67,62,91,76,58,30.08,29.91,12,3,24,0.00
2013-5-27,79,69,62,70,65,60,97,85,73,30.01,29.72,15,4,27,1.35
2013-5-28,77,73,70,71,69,66,90,85,77,29.84,29.65,15,4,25,0.07
2013-5-29,85,75,64,70,66,61,91,76,57,29.88,29.67,12,6,26,0.03
2013-5-30,72,66,63,67,62,60,94,88,75,29.77,29.62,14,7,30,1.40
2013-5-31,80,68,61,71,64,60,96,90,75,29.84,29.68,13,4,23,1.70
2013-6-1,73,66,61,64,58,54,95,77,55,29.97,29.68,11,4,26,0.00
2013-6-2,67,60,57,56,52,48,85,74,56,30.09,29.96,9,4,19,0.00
2013-6-3,73,63,50,58,52,46,88,69,54,30.11,29.94,8,2,16,0.00
2013-6-4,74,66,60,67,60,55,92,83,75,30.05,29.91,9,4,16,0.06
2013-6-5,72,65,60,67,62,58,95,90,83,30.01,29.91,5,1,11,0.35
2013-6-6,76,69,62,64,58,52,96,69,45,29.97,29.91,8,2,16,0.00
2013-6-7,77,66,55,58,55,52,93,68,44,30.01,29.92,9,2,18,0.00
2013-6-8,80,69,55,60,57,52,92,66,45,29.97,29.80,9,3,18,0.00
2013-6-9,80,71,63,64,61,57,93,73,48,29.89,29.77,11,4,24,0.26
2013-6-10,88,73,62,65,62,58,86,69,44,29.91,29.81,8,2,17,0.00
2013-6-11,94,82,70,70,67,64,86,64,42,29.90,29.79,15,5,26,0.00
2013-6-12,94,85,76,74,72,66,84,65,49,29.87,29.74,19,8,34,0.00
2013-6-13,89,77,65,65,61,57,75,58,37,30.04,29.87,13,4,24,0.00
2013-6-14,87,78,68,68,65,62,86,65,48,30.06,29.91,12,4,20,0.00
2013-6-15,87,74,68,76,68,64,94,83,68,30.05,29.88,17,5,33,1.45
2013-6-16,70,69,68,67,66,66,94,92,89,29.96,29.92,2,0,6,0.00
2013-6-17,77,71,68,70,68,65,95,88,78,29.98,29.91,4,1,12,0.95
2013-6-18,89,76,67,70,65,60,93,71,41,30.02,29.96,11,2,25,0.01
2013-6-19,88,77,67,70,66,62,88,70,47,30.05,29.96,7,2,13,0.00
2013-6-20,89,80,69,72,69,65,88,70,54,30.04,29.92,10,5,21,0.00
2013-6-21,94,84,76,76,73,69,84,70,54,30.00,29.91,11,6,24,0.00
2013-6-22,94,84,74,75,73,70,91,71,52,30.00,29.85,12,4,21,0.00
2013-6-23,87,79,73,76,72,67,90,79,63,29.95,29.84,14,4,29,0.59
2013-6-24,92,82,74,76,72,69,87,73,55,29.98,29.80,10,4,27,0.00
2013-6-25,89,82,78,75,72,70,84,71,58,29.88,29.72,10,5,23,0.01
2013-6-26,98,87,76,76,71,62,85,62,32,29.85,29.69,11,5,21,0.00
2013-6-27,92,82,76,75,71,67,85,71,47,29.98,29.79,14,1,28,0.06
2013-6-28,90,80,70,71,65,57,93,64,34,29.94,29.82,14,4,23,0.00
2013-6-29,84,74,67,66,61,58,82,65,43,29.85,29.76,19,6,32,0.07
2013-6-30,80,72,63,63,60,57,85,68,50,30.01,29.85,12,4,23,0.00
2013-7-1,84,74,61,59,55,50,84,56,34,30.10,30.01,14,4,23,0.00
2013-7-2,86,74,58,60,56,52,87,56,34,30.12,30.04,13,2,26,0.00
2013-7-3,83,71,63,64,59,57,82,67,46,30.08,30.00,6,1,15,0.06
2013-7-4,87,74,60,65,60,56,88,66,38,30.08,29.97,8,1,15,0.00
2013-7-5,90,77,64,65,62,59,85,62,39,30.02,29.92,7,2,15,0.00
2013-7-6,92,78,66,68,65,62,87,66,41,29.99,29.90,11,3,19,0.00
2013-7-7,92,81,72,72,68,65,85,67,49,29.98,29.92,11,3,22,0.02
2013-7-8,94,83,75,75,70,66,76,66,49,30.03,29.96,8,2,18,0.00
2013-7-9,98,86,75,77,74,70,84,68,50,30.00,29.83,10,3,18,0.00
2013-7-10,97,87,81,74,69,59,72,56,30,30.00,29.86,8,3,16,0.00
2013-7-11,88,78,70,65,61,58,73,57,39,30.08,29.98,8,2,16,0.00
2013-7-12,89,76,65,64,62,60,85,62,39,30.09,29.99,10,4,18,0.00
2013-7-13,87,76,65,66,63,59,81,66,49,30.07,29.98,9,3,17,0.00
2013-7-14,88,77,66,67,64,61,86,65,42,30.10,30.02,9,3,18,0.00
2013-7-15,90,80,71,72,69,67,87,71,51,30.19,30.10,8,2,18,0.00
2013-7-16,96,83,72,75,72,68,93,70,44,30.26,30.17,6,1,12,0.00
2013-7-17,95,85,76,74,72,70,83,66,49,30.30,30.17,4,1,11,0.00
2013-7-18,97,87,75,75,71,67,89,62,39,30.19,29.97,7,2,16,0.00
2013-7-19,99,88,76,73,70,67,78,58,37,29.98,29.83,9,2,19,0.00
2013-7-20,88,82,75,76,72,68,87,72,58,29.94,29.84,6,1,12,0.00
2013-7-21,85,78,72,75,71,69,92,81,65,29.91,29.80,10,1,20,0.26
2013-7-22,95,82,70,77,72,68,94,74,53,29.85,29.74,9,1,19,0.01
2013-7-23,89,80,73,72,70,64,87,71,55,29.92,29.76,8,2,18,0.00
2013-7-24,87,77,68,64,62,60,82,62,43,30.04,29.91,7,2,13,0.00
2013-7-25,85,77,68,72,66,61,86,70,50,30.11,30.01,6,1,13,0.03
2013-7-26,86,75,70,73,67,56,93,77,48,30.04,29.96,6,1,16,0.39
2013-7-27,80,70,57,59,55,52,90,62,39,30.10,29.98,8,2,18,0.00
2013-7-28,80,70,57,58,54,51,86,61,39,30.08,30.02,4,0,13,0.00
2013-7-29,72,68,64,68,63,56,95,86,61,30.14,30.01,10,3,17,0.36
2013-7-30,85,76,69,76,72,67,96,87,72,30.05,29.98,4,0,10,0.03
2013-7-31,83,76,71,73,69,66,89,78,60,30.10,30.02,7,1,13,0.00
2013-8-1,89,78,68,71,67,64,90,71,47,30.10,29.94,4,1,11,0.00
2013-8-2,84,76,70,75,71,65,92,83,72,29.98,29.86,11,1,18,0.13
2013-8-3,86,77,70,74,71,66,94,83,67,30.13,29.91,8,1,16,0.00
2013-8-4,75,72,68,70,65,61,93,80,71,30.16,30.03,7,2,14,0.05
2013-8-5,87,77,70,76,72,68,95,85,67,30.06,29.82,6,0,11,0.00
2013-8-6,91,80,71,78,74,69,95,82,62,29.88,29.78,18,2,34,0.49
2013-8-7,87,80,73,77,73,68,92,81,64,29.94,29.76,8,2,20,0.28
2013-8-8,80,75,68,70,67,64,88,79,70,30.00,29.91,6,1,13,0.00
2013-8-9,81,76,72,73,70,66,90,80,71,30.09,29.98,4,0,7,0.03
2013-8-10,87,77,68,69,65,61,91,68,46,30.20,30.08,8,2,16,0.00
2013-8-11,87,76,64,72,65,59,86,71,53,30.14,30.01,5,1,13,0.00
2013-8-12,88,78,71,72,70,69,94,79,59,30.04,29.94,6,1,11,0.21
2013-8-13,85,76,69,69,63,59,87,66,46,30.12,30.00,6,0,14,0.00
2013-8-14,79,69,60,62,57,54,88,69,45,30.21,30.11,8,1,14,0.00
2013-8-15,75,67,60,59,57,55,87,71,54,30.16,30.05,7,2,13,0.00
2013-8-16,78,69,61,60,57,55,84,67,47,30.18,30.09,6,2,13,0.00
2013-8-17,81,70,57,60,58,54,90,66,46,30.22,30.11,7,1,14,0.00
2013-8-18,83,72,58,66,62,54,88,70,53,30.19,30.08,7,1,13,0.00
2013-8-19,86,76,63,68,64,61,93,70,45,30.11,30.01,7,1,16,0.00
2013-8-20,89,77,66,70,66,62,88,71,50,30.07,29.99,6,1,16,0.00
2013-8-21,91,79,67,72,68,64,91,71,48,30.08,30.00,7,1,16,0.00
2013-8-22,92,81,73,73,71,68,87,72,49,30.09,30.00,4,0,12,0.00
2013-8-23,92,82,72,74,71,69,91,72,48,30.09,30.00,4,1,11,0.00
2013-8-24,92,81,71,74,71,67,93,73,52,30.15,30.04,6,2,14,0.00
2013-8-25,93,81,69,75,70,65,90,72,51,30.22,30.11,7,2,14,0.00
2013-8-26,94,83,73,74,72,69,88,71,51,30.17,30.04,8,2,18,0.00
2013-8-27,93,83,72,72,70,67,88,67,44,30.06,29.96,10,3,24,0.00
2013-8-28,94,82,72,74,70,66,85,68,44,30.04,29.98,6,2,15,0.00
2013-8-29,96,85,75,76,73,70,86,69,49,30.03,29.92,6,1,12,0.00
2013-8-30,99,86,76,74,73,70,86,66,40,29.95,29.80,10,3,18,0.00
2013-8-31,96,85,77,79,75,72,85,74,54,29.83,29.75,8,1,16,0.00
2013-9-1,92,79,70,75,70,63,94,75,50,29.95,29.75,16,2,32,0.28
2013-9-2,86,74,63,64,62,59,87,67,43,30.04,29.92,7,1,15,0.00
2013-9-3,88,73,61,62,59,55,82,63,38,30.11,30.01,3,0,9,0.00
2013-9-4,88,73,59,63,60,56,92,66,37,30.18,30.05,2,0,6,0.00
2013-9-5,87,87,87,60,60,60,41,40,40,30.13,30.13,5,4,12,0.00
2013-10-26,56,56,56,43,43,43,62,62,61,30.17,30.17,7,7,13,0.00
2013-10-28,68,60,44,51,47,38,77,64,43,30.21,30.14,5,1,12,0.00
2013-10-29,63,56,50,62,54,45,97,92,78,30.19,29.98,10,2,18,0.38
2013-10-30,70,66,63,66,64,62,98,94,87,30.01,29.75,12,4,23,0.98
2013-10-31,63,53,47,62,52,45,97,94,84,29.74,29.52,9,3,19,0.78
2013-11-1,60,51,44,46,43,40,92,76,56,29.98,29.65,13,4,27,0.06
2013-11-2,51,45,43,43,41,40,90,86,69,30.22,29.97,9,5,17,0.00
2013-11-26,28,25,22,16,15,12,67,65,60,30.45,30.39,11,6,20,0.00
2013-11-27,32,24,17,17,13,10,76,64,47,30.51,30.27,6,2,14,0.00
2013-11-28,42,33,27,26,21,16,73,62,52,30.57,30.25,7,3,17,0.00
2013-11-29,50,35,24,32,25,18,81,69,49,30.58,30.35,6,2,14,0.00
2013-11-30,54,44,34,40,35,27,87,71,59,30.34,30.13,9,2,18,0.00
2013-12-1,56,43,30,41,36,28,94,78,52,30.17,29.94,1,0,7,0.00
2013-12-2,49,42,36,44,40,33,96,90,81,29.94,29.67,8,2,16,0.00
2013-12-3,61,48,36,52,44,35,97,89,68,29.67,29.56,7,1,16,0.01
2013-12-4,51,40,25,50,37,19,96,90,76,30.05,29.55,13,5,26,0.00
2013-12-5,25,20,19,19,12,9,81,69,62,30.46,30.05,15,7,28,0.00
2013-12-6,19,16,12,9,4,2,66,59,48,30.75,30.45,12,7,23,0.00
2013-12-7,22,14,6,8,5,1,82,65,49,30.83,30.51,7,2,15,0.00
2013-12-8,24,22,19,22,17,7,93,82,58,30.51,30.08,6,2,16,0.00
2013-12-9,21,14,11,19,9,5,92,80,69,30.48,30.24,8,2,19,0.00
2013-12-10,37,24,11,21,14,4,76,66,49,30.42,30.31,11,3,22,0.01
2013-12-11,25,21,10,20,11,3,85,67,46,30.73,30.32,14,4,25,0.01
2013-12-12,46,28,10,25,15,3,77,60,36,30.69,30.27,10,3,21,0.00
2013-12-13,36,33,27,34,30,22,95,88,74,30.26,29.95,8,2,14,0.75
2013-12-14,33,28,22,32,25,18,96,90,82,30.30,29.94,13,7,25,0.01
2013-12-15,43,32,21,34,26,17,89,81,67,30.29,30.03,10,1,18,0.01
2013-12-16,44,32,26,38,29,24,95,89,77,30.23,30.01,7,0,15,0.01
2013-12-17,46,36,28,34,28,21,91,73,51,30.34,30.22,12,2,21,0.00
2013-12-18,60,44,28,42,33,22,79,65,50,30.31,29.86,12,5,31,0.00
2013-12-19,57,53,48,51,46,39,87,79,67,29.87,29.70,8,3,19,0.00
2013-12-20,54,32,24,51,30,22,94,91,86,29.99,29.68,12,5,20,0.00
2013-12-21,29,27,24,28,25,22,94,92,90,29.97,29.67,10,3,20,0.00
2013-12-22,29,24,14,27,21,11,94,89,84,30.46,29.76,10,4,18,0.00
2013-12-23,14,10,5,11,6,1,88,82,75,30.74,30.45,6,1,14,0.00
2013-12-24,27,16,2,25,12,-2,91,83,73,30.72,30.34,8,2,15,0.00
2013-12-25,39,32,27,32,28,25,93,86,71,30.41,30.32,9,2,18,0.17
2013-12-26,46,35,25,35,29,22,91,80,63,30.40,30.25,11,3,21,0.14
2013-12-27,52,39,28,40,33,26,93,80,59,30.40,30.24,5,2,15,0.02
2013-12-28,53,43,36,37,33,30,83,70,50,30.24,29.93,10,4,21,0.02
2013-12-29,40,21,12,32,13,2,85,71,54,30.42,29.95,17,9,30,0.00
2013-12-30,28,19,10,16,8,0,72,62,49,30.43,30.27,8,2,16,0.00
2013-12-31,49,34,20,32,24,16,85,67,50,30.41,30.14,11,3,20,0.00
2014-1-1,38,23,12,26,18,9,88,80,62,30.35,30.10,13,6,25,0.00
2014-1-2,17,9,1,9,2,-3,87,75,59,30.61,30.35,13,4,22,0.00